Miscellaneous Local Product
Issued by NWS North Platte, NE

Home | Current Version | Previous Version | Text Only | Print | Product List | Glossary On
Versions: 1 2 3 4 5 6 7 8 9 10 11 12 13 14 15 16 17 18 19 20 21 22 23 24 25 26 27 28 29 30 31 32 33 34 35 36 37 38 39 40 41 42 43 44 45 46 47 48 49 50
000
AXUS43 KLBF 241910
MISLBF


WESTERN AND NORTH CENTRAL NEBRASKA HOURLY WEATHER ROUNDUP
NATIONAL WEATHER SERVICE NORTH PLATTE NE
200 PM CDT FRI MAR 24 2017

NOTE: "FAIR" INDICATES FEW OR NO CLOUDS BELOW 12,000 FEET WITH NO
SIGNIFICANT WEATHER AND/OR OBSTRUCTIONS TO VISIBILITY.

NOTE: STATIONS NOT REPORTING VARIABLES SUCH AS SKY/WEATHER OR
PRESSURE ARE PROVIDED BY RAWS AND APRS NETWORKS AND ARE NOT UNDER
NATIONAL WEATHER SERVICE QUALITY CONTROL.

...OBSERVATIONS IN AND NEAR THE EASTERN PANHANDLE OF NEBRASKA...

CITY           SKY/WX    TMP DP  RH WIND       PRES   REMARKS
PINE RIDGE     SUNNY     58  36  43 N12       30.11S
CHADRON        MOSUNNY   56  38  50 VRB7      30.11F
SIDNEY         CLOUDY    46  36  68 N23G32    30.10R
CRESCENT LAKE    N/A     50  33  53 N18G26      N/A
$$

...OBSERVATIONS IN NORTHERN NEBRASKA AND FAR SOUTHERN SOUTH DAKOTA...

CITY           SKY/WX    TMP DP  RH WIND       PRES   REMARKS
WINNER         FAIR      56  36  47 N18       30.09R
VALENTINE      CLOUDY    54  35  48 NE18G30   30.09R
THEDFORD       CLOUDY    46  38  73 NE22G35   30.04R
AINSWORTH      CLOUDY    47  39  74 N15       30.08R
O`NEILL        CLOUDY    40  39  95 N12G17    30.06S WCI  33
ORD            LGT RAIN  40  37  89 N21G29    30.00R FOG     WCI  30
BROKEN BOW     CLOUDY    41  38  89 N20G30    29.99R
VALENTINE NWR    N/A     47  37  68 NE14G22     N/A
HALSEY           N/A     42  39  88 N13G26      N/A
BUTTE            N/A     43  38  82 NE15        N/A
CHAMBERS         N/A     39  37  94 E6          N/A  WCI  35
EWING            N/A     38  37  96 NE6         N/A  WCI  33
$$

...OBSERVATIONS IN SOUTHWEST NEBRASKA AND FAR NORTHEAST COLORADO...

CITY           SKY/WX    TMP DP  RH WIND       PRES   REMARKS
HOLYOKE        DRIZZLE   43  37  81 N26G37    30.04R
IMPERIAL       LGT RAIN  42  39  89 N30G37    29.99R FOG
OGALLALA       DRIZZLE   46  38  75 N22G28    30.05R
NORTH PLATTE   CLOUDY    44  39  82 N28G38    29.97R
MCCOOK         LGT RAIN  42  40  92 NE23      29.97R FOG
LEXINGTON      LGT RAIN  41  38  90 NE22G29   29.97S
STAPLETON        N/A     43  40  89 E5G18       N/A
GOTHENBURG       N/A     40  37  89 N15         N/A  WCI  32
CALLAWAY         N/A     38  37  98 NE21        N/A  WCI  28
$$

...OBSERVATIONS IN CENTRAL LINCOLN COUNTY AREA...

CITY           SKY/WX    TMP DP  RH WIND       PRES   REMARKS
N.P. AIRPORT   CLOUDY    44  39  82 N28G38    29.97R
N.P. DOWNTOWN    N/A     44  40  86 NE20G36     N/A
N.P. SOUTHEAST   N/A     43  38  84 N13G26      N/A
N.P. HILLCREST   N/A     44  40  87 NE30G40     N/A
$$

...SOME OBSERVATIONS FROM AROUND THE REGION...

CITY           SKY/WX    TMP DP  RH WIND       PRES   REMARKS
DENVER         PTSUNNY   45  34  65 N18       30.12S
LIMON          MIX PCPN  35  35 100 N31G39    30.07R WCI  22
ASPEN          CLOUDY    42  28  57 N9        30.16S
LARAMIE        PTSUNNY   43  25  49 NW14      30.16S
GILLETTE       SUNNY     54  31  41 S7        30.12F
CHEYENNE       PTSUNNY   47  25  42 N23G36    30.12S
SCOTTSBLUFF    MOSUNNY   57  32  38 N22G29    30.11S
GRAND ISLAND   LGT RAIN  40  40 100 N23G30    29.97S FOG     WCI  30
OMAHA          CLOUDY    47  42  83 N16       29.95R
SIOUX FALLS    CLOUDY    43  37  79 NE15      30.08R
PIERRE         MOSUNNY   56  36  47 N12       30.10S
RAPID CITY     PTSUNNY   56  34  43 N14G24    30.10S
BISMARCK       SUNNY     43  32  65 E8        30.19S
KANSAS CITY    CLOUDY    62  57  83 NE7       29.87S
HILL CITY      CLOUDY    45  42  89 NE26G32   29.91R
WICHITA        MOSUNNY   76  44  32 S15G22    29.74F
DODGE CITY     SUNNY     68  29  23 SE13G24   29.73R
OKLAHOMA CITY  MOSUNNY   78  27  15 S25G33    29.71F
DALLAS         PTSUNNY   67  56  67 S23G29    29.83F
AMARILLO       LGT RAIN  47  41  80 NW35G45   29.74R
$$




USA.gov is the U.S. government's official web portal to all federal, state and local government web resources and services.